Printer-friendly version

IAU Minor Planet Center

Minor Planet Center

MPEC 2006-S52 : 2006 SK61

The following Minor Planet Electronic Circular may be linked-to from your own Web pages, but must not otherwise be redistributed electronically.


Read MPEC 2006-S51 Read MPEC 2006-S53


M.P.E.C. 2006-S52                                Issued 2006 Sept. 22, 18:50 UT

     The Minor Planet Electronic Circulars contain information on unusual
         minor planets and routine data on comets.  They are published
   on behalf of Commission 20 of the International Astronomical Union by the
          Minor Planet Center, Smithsonian Astrophysical Observatory,
                          Cambridge, MA 02138, U.S.A.

                  Supported in part by the Brinson Foundation
                  Supported in part by the TABASGO Foundation
             Prepared using the Tamkin Foundation Computer Network

                              MPC@CFA.HARVARD.EDU
          URL http://cfa-www.harvard.edu/iau/mpc.html  ISSN 1523-6714

                                   2006 SK61

Observations:
     K06S61K* C2006 09 22.34063 00 04 18.42 +22 21 25.9          18.1 R ES052699
     K06S61K  C2006 09 22.35892 00 04 48.65 +22 25 13.0                 ES052699
     K06S61K  C2006 09 22.37720 00 05 19.08 +22 28 56.9                 ES052699
     K06S61K  C2006 09 22.73029 00 17 02.07 +23 37 38.4          17.7 V ES052A50
     K06S61K  C2006 09 22.73177 00 17 04.73 +23 37 57.3          18.0 V ES052A50
     K06S61K  C2006 09 22.73325 00 17 07.38 +23 38 17.3          18.1 V ES052A50
     K06S61K  C2006 09 22.73473 00 17 10.04 +23 38 35.8          18.2 V ES052A50
     K06S61K  C2006 09 22.73621 00 17 12.80 +23 38 55.2          18.0 V ES052A50
     K06S61K  C2006 09 22.73770 00 17 15.46 +23 39 14.5          18.2 V ES052A50

Observer details:
699 Lowell Observatory-LONEOS.  Observer M. E. Van Ness.  0.59-m LONEOS
    Schmidt + CCD.
A50 Andrushivka Astronomical Observatory.  Observers Y. Ivashchenko,
    O. Gerashchenko.  0.6-m reflector + CCD.

Orbital elements:
2006 SK61                                                Earth MOID = 0.0142 AU
Epoch 2006 Sept. 22.0 TT = JDT 2454000.5                MPC
M 356.61107              (2000.0)            P               Q
n   0.60691804     Peri.   42.03356     +0.99630277     -0.08576901
a   1.3816012      Node   322.88582     +0.07647775     +0.91166195
e   0.2645768      Incl.    0.46973     +0.03914011     +0.40189074
P   1.62           H   26.1           G   0.15           U   8
Residuals in seconds of arc
060922 699  0.1-  0.7+    060922 A50  0.4+  0.3-    060922 A50  0.9-  0.1-
060922 699  0.5-  0.0     060922 A50  0.1-  0.5-    060922 A50  0.1+  0.2+
060922 699  0.0   0.7-    060922 A50  0.6-  0.4+    060922 A50  0.4-  0.4+

Ephemeris:
2006 SK61                a,e,i = 1.38, 0.26, 0                   q = 1.0161
Date    TT    R. A. (2000) Decl.     Delta      r     Elong.  Phase     V
2006 09 22    23 53.82   +21 09.6    0.0144   1.017   158.3    21.4    18.0
2006 09 24    00 55.84   +27 26.5    0.0152   1.017   150.0    29.6    18.3
2006 09 26    01 52.47   +31 12.3    0.0171   1.016   141.3    38.1    18.8
2006 09 28    02 38.61   +32 56.4    0.0196   1.016   134.5    44.7    19.3
2006 09 30    03 14.00   +33 29.1    0.0226   1.016   129.8    49.2    19.7
2006 10 02    03 40.63   +33 26.5    0.0258   1.017   126.7    52.1    20.1
2006 10 04    04 00.74   +33 08.2    0.0293   1.017   124.8    53.8    20.4
2006 10 06    04 16.10   +32 43.9    0.0329   1.018   123.8    54.6    20.7
2006 10 08    04 27.98   +32 18.1    0.0365   1.020   123.5    54.8    21.0
2006 10 10    04 37.25   +31 52.8    0.0402   1.021   123.6    54.5    21.2
2006 10 12    04 44.52   +31 28.8    0.0439   1.023   124.2    53.8    21.3
2006 10 14    04 50.20   +31 06.2    0.0477   1.026   125.0    52.8    21.5
2006 10 16    04 54.60   +30 45.0    0.0514   1.028   126.1    51.6    21.6
2006 10 18    04 57.95   +30 25.1    0.0552   1.031   127.4    50.1    21.7
2006 10 20    05 00.43   +30 06.4    0.0590   1.034   128.9    48.5    21.8
2006 10 22    05 02.16   +29 48.7    0.0628   1.037   130.6    46.8    21.9

Kyle E. Smalley              (C) Copyright 2006 MPC           M.P.E.C. 2006-S52

Read MPEC 2006-S51 Read MPEC 2006-S53


Our Web policy. Index to the CBAT/MPC/ICQ pages.


Valid HTML 4.01!